This is the latest recevied weather packets stored in our database for station/object W7TJC. If no packets are shown the sender has not sent any weather packets the latest 10 day(s).
| Time | Temp. | Humidity | Pressure | Rain* | Wind** | Luminosity | Snow |
|---|---|---|---|---|---|---|---|
| 1777858564 | 25.56° C | 35% | 1010.6 hPa | 0 mm | - | 19 W/m² | - |
| 1777858261 | 25.56° C | 35% | 1010.7 hPa | 0 mm | - | 19 W/m² | - |
| 1777857959 | 25.56° C | 35% | 1010.7 hPa | 0 mm | - | 11 W/m² | - |
| 1777857657 | 25.56° C | 35% | 1010.9 hPa | 0 mm | - | 11 W/m² | - |
| 1777857353 | 25.56° C | 36% | 1010.9 hPa | 0 mm | - | 11 W/m² | - |
| 1777857049 | 25.56° C | 36% | 1010.9 hPa | 0 mm | - | 13 W/m² | - |
| 1777856745 | 25.56° C | 36% | 1010.9 hPa | 0 mm | - | 12 W/m² | - |
| 1777856441 | 25.56° C | 36% | 1010.9 hPa | 0 mm | - | 12 W/m² | - |
| 1777856138 | 25.56° C | 36% | 1011 hPa | 0 mm | - | 13 W/m² | - |
| 1777855836 | 25.56° C | 36% | 1011.1 hPa | 0 mm | - | 13 W/m² | - |
| 1777855533 | 25.56° C | 35% | 1011 hPa | 0 mm | - | 13 W/m² | - |
| 1777855230 | 25.56° C | 34% | 1011 hPa | 0 mm | - | 14 W/m² | - |
| 1777854926 | 26.11° C | 35% | 1011.1 hPa | 0 mm | - | 15 W/m² | - |
| 1777854623 | 26.11° C | 34% | 1011.2 hPa | 0 mm | - | 14 W/m² | - |
| 1777854320 | 26.11° C | 35% | 1011.2 hPa | 0 mm | - | 15 W/m² | - |
| 1777854018 | 26.11° C | 37% | 1011.1 hPa | 0 mm | - | 16 W/m² | - |
| 1777853715 | 26.11° C | 35% | 1011.1 hPa | 0 mm | - | 16 W/m² | - |
| 1777853411 | 26.11° C | 35% | 1011.4 hPa | 0 mm | - | 20 W/m² | - |
| 1777853109 | 26.11° C | 35% | 1011.3 hPa | 0 mm | - | 18 W/m² | - |
| 1777852806 | 26.11° C | 35% | 1011.4 hPa | 0 mm | - | 19 W/m² | - |
| 1777852504 | 26.11° C | 34% | 1011.5 hPa | 0 mm | - | 20 W/m² | - |
| 1777852200 | 26.11° C | 37% | 1011.5 hPa | 0 mm | - | 19 W/m² | - |
| 1777851898 | 26.11° C | 36% | 1011.5 hPa | 0 mm | - | 20 W/m² | - |
| 1777851596 | 26.11° C | 36% | 1011.6 hPa | 0 mm | - | 20 W/m² | - |
| 1777851292 | 26.11° C | 36% | 1011.7 hPa | 0 mm | - | 20 W/m² | - |
* Rain latest hour (hover to see other rain measurements)
** Current wind speed in m/s (hover to see current wind gust speed)